Location: Geroldsau
(48.7259°N, 8.2466°E)
Time: 09:41:15
(UTC+00:00)

Helios 1A - Pass Details

Date: 20 June 2021
Orbit: 584 x 601 km, 98.2° (Epoch: 23 July)

Event Time Altitude Azimuth Distance (km) Brightness Sun altitude
Exits shadow 00:59:49 27° 204° (SSW) 1,166 3.9 -15.0°
Maximum altitude 01:01:43 44° 261° (W) 825 3.4 -14.9°
Drops below altitude 10° 01:05:47 10° 334° (NNW) 1,947 6.2 -14.6°
Sets 01:08:03 0° 341° (NNW) 2,857 7.2 -14.5°
